IRIDIUM 33 DEB, 46734

Orbit data source: Space-Track

IRIDIUM 33 DEB, 46734 is space debris in LEO originally from a launch on Sun, 14 Sep 1997 UTC launched from the Tyuratam Missile And Space Complex (TTMTR). The debris from Iridium 33, an American commercial communications satellite, has been tracked extensively since its accidental collision with the defunct Russian satellite Cosmos 2251 in 2009. This event, occurring at high speed in low Earth orbit (LEO), generated thousands of pieces of space debris, significantly increasing the risk of further collisions. The Iridium 33 debris cloud has impacted space traffic management and orbital debris mitigation strategies, making it a subject of ongoing study in space situational awareness.

Loading next visibility...
Identifier
46734, 1997-051ABR
Orbit
LEO
Country
Flag of USUS
Related business
Manufacturer
Unknown
Mission
Spacecraft
Bus & Motor
Unknown
Mass
Unknown
Launch date (UTC)
1997-09-14 (29 years ago)
Launch vehicle
Unknown
Launch site
Tyuratam Missile And Space Complex (TTMTR)
Object type
Payload
Rocket body
Debris
Shape & HBR
Unknown shape, 0.1 m
Radar Cross Section
Small (<0.1 m²)

Expand to show TLE details & history
Last TLE update: 3 days ago

TLE from 3 days ago
0 IRIDIUM 33 DEB
1 46734U 97051ABR 26118.77406775  .00002781  00000-0  82109-3 0  9998
2 46734  86.2580 302.6594 0037956 238.7248 137.1241 14.42834568649865
Epoch: 2026-04-28T18:34Z
TLE epoch observation values (Epoch: 2026-04-28T18:34:39.453Z)
Latitude
16.08788°
Longitude
168.32551°
Altitude
771.421 km
Speed
7.459 km/s
True Right ascension
20h 14m 56s
True Declination
15° 59' 48"
Sunlit
Object was in daylight at epoch
Visualization orbit readout
Latitude
Unknown
Longitude
Unknown
Altitude
Unknown
Speed
Unknown
Apparent Right ascension
Unknown
Apparent Declination
Unknown
Sunlit
N/A
Visualization observer readout
Local Sidereal Time
00:08:04
Azimuth
Unknown
Elevation
Unknown
Doppler factor
Unknown
Orbital elements
Apogee altitude
773.144 km
Perigee altitude
719.063 km
Semi-major axis
7,124.241 km
Eccentricity
0.0038
Inclination
86.258°
RAAN
302.6594°
Arg. of periapsis
238.7248°
True anomaly
137.41901°
Mean anomaly
137.1241°
Eccentric anomaly
137.27166°
Mean motion
3.6094 °/min
Orbital period
99.74 mins
BSTAR
0.00082109
Loading maneuver chart data...
Computing Atmospheric mass density...
Loading historical data...
Loading historical data...
Loading historical data...
Loading historical data...
Loading historical data...
Loading historical data...
Loading historical data...

Documentation

Showing up to 5 results
|